contact:dominique.lefevre@mio.osupytheas.fr, maurice.libes@osupytheas.fr, didier.mallarino@osupytheas.fr
Project:EMSO http://www.emso-fr.org/EMSO-France
Depth: 2436.0 m
Title:EMSO Ligure Ouest : Data MII capteur AQUADOPP
Date,Latitude,Longitude,X_East,Y_North,Z_Up,Amplitude_X,Amplitude_Y,Amplitude_Z,Batterie,SoundSpeed,Heading,Pitch,Roll,Pressure,TIS,Speed,Direction
, degrees North, degrees East, m.s-1, m.s-1,m.s-1, 1, 1, 1, Volt, m.s-1, degree, degree, degree, dbar, degree_C, m.s-1, degree
2024-05-03T14:04:03,42.805,6.029,0.014,-0.052,-0.048,106.0,106.0,103.0,13.4,1505.2,1.0,-0.8,1.9,2471.809,13.28,0.053,164.9
2024-05-03T14:07:03,42.805,6.029,-0.001,-0.041,-0.01,107.0,105.0,104.0,13.4,1505.2,358.9,-0.8,1.8,2471.696,13.29,0.041,181.4
2024-05-03T14:10:03,42.805,6.029,0.02,-0.025,-0.013,107.0,107.0,103.0,13.4,1505.2,9.2,-0.7,1.8,2471.704,13.29,0.032,141.3
2024-05-03T14:13:03,42.805,6.029,-0.011,-0.06,0.012,106.0,105.0,103.0,13.4,1505.2,359.5,-0.8,1.8,2471.671,13.29,0.06,190.4
2024-05-03T14:16:03,42.805,6.029,0.0,-0.036,-0.002,107.0,106.0,103.0,13.4,1505.2,355.6,-0.8,1.8,2471.635,13.29,0.036,180.0
2024-05-03T14:19:03,42.805,6.029,0.005,-0.046,-0.008,107.0,105.0,103.0,13.4,1505.2,5.7,-0.8,1.8,2471.563,13.29,0.046,173.8
2024-05-03T14:22:03,42.805,6.029,0.021,-0.018,0.009,108.0,106.0,104.0,13.4,1505.2,358.9,-0.8,1.8,2471.56,13.29,0.027,130.6
2024-05-03T14:25:03,42.805,6.029,0.006,-0.033,-0.019,107.0,106.0,104.0,13.4,1505.2,358.9,-0.7,1.8,2471.566,13.29,0.033,169.7
2024-05-03T14:28:03,42.805,6.029,-0.017,-0.024,0.011,106.0,106.0,103.0,13.4,1505.2,9.2,-0.8,1.8,2471.551,13.29,0.029,215.3
2024-05-03T14:31:03,42.805,6.029,-0.001,-0.052,0.005,107.0,106.0,103.0,13.4,1505.2,10.1,-0.8,1.8,2471.485,13.29,0.052,181.1
2024-05-03T14:34:03,42.805,6.029,-0.014,-0.033,0.003,108.0,105.0,103.0,13.4,1505.2,6.0,-0.8,1.8,2471.542,13.29,0.035,203.0
2024-05-03T14:37:03,42.805,6.029,0.004,-0.012,-0.013,106.0,105.0,103.0,13.4,1505.2,359.4,-0.7,1.8,2471.532,13.29,0.012,161.6
2024-05-03T14:40:03,42.805,6.029,0.004,-0.005,0.004,106.0,105.0,104.0,13.4,1505.2,357.8,-0.8,1.8,2471.515,13.29,0.006,141.3
2024-05-03T14:43:03,42.805,6.029,-0.007,-0.034,0.008,106.0,105.0,103.0,13.4,1505.2,1.6,-0.8,1.8,2471.542,13.29,0.034,191.6
2024-05-03T14:46:03,42.805,6.029,0.008,-0.046,-0.004,107.0,106.0,103.0,13.4,1505.2,10.9,-0.8,1.8,2471.532,13.29,0.046,170.1
2024-05-03T14:49:03,42.805,6.029,-0.018,-0.016,-0.009,108.0,107.0,103.0,13.4,1505.2,358.3,-0.8,1.8,2471.525,13.29,0.024,228.4
2024-05-03T14:52:03,42.805,6.029,0.02,-0.031,0.015,108.0,107.0,105.0,13.4,1505.2,358.9,-0.8,1.8,2471.519,13.29,0.036,147.2
2024-05-03T14:55:03,42.805,6.029,-0.023,-0.03,0.008,107.0,106.0,103.0,13.4,1505.2,9.7,-0.8,1.8,2471.54,13.29,0.037,217.5
2024-05-03T14:58:03,42.805,6.029,0.004,-0.021,0.003,106.0,106.0,105.0,13.4,1505.2,357.4,-0.7,1.8,2471.599,13.29,0.021,169.2
2024-05-03T15:04:03,42.805,6.029,-0.005,-0.031,0.021,107.0,107.0,103.0,13.3,1505.2,359.4,-0.8,1.8,2471.615,13.29,0.031,189.2
2024-05-03T15:07:03,42.805,6.029,0.011,-0.018,0.019,108.0,106.0,104.0,13.3,1505.2,8.2,-0.8,1.8,2471.62,13.29,0.021,148.6
2024-05-03T15:10:03,42.805,6.029,0.006,-0.014,-0.013,106.0,107.0,105.0,13.4,1505.2,355.2,-0.8,1.8,2471.612,13.29,0.015,156.8
2024-05-03T15:13:03,42.805,6.029,0.01,-0.031,-0.006,106.0,107.0,104.0,13.4,1505.2,4.6,-0.7,1.8,2471.611,13.29,0.032,162.1
2024-05-03T15:16:03,42.805,6.029,-0.005,-0.039,-0.005,107.0,106.0,104.0,13.3,1505.2,9.1,-0.8,1.8,2471.601,13.29,0.039,187.3
2024-05-03T15:19:03,42.805,6.029,0.011,-0.029,0.013,106.0,107.0,103.0,13.4,1505.2,358.3,-0.8,1.8,2471.627,13.29,0.031,159.2
2024-05-03T15:22:03,42.805,6.029,0.001,-0.036,-0.002,107.0,106.0,104.0,13.4,1505.2,357.8,-0.8,1.8,2471.608,13.29,0.036,178.4
2024-05-03T15:25:03,42.805,6.029,-0.01,-0.022,0.009,107.0,106.0,105.0,13.4,1505.2,11.1,-0.8,1.8,2471.601,13.29,0.024,204.4
2024-05-03T15:28:03,42.805,6.029,0.013,-0.026,0.012,107.0,106.0,104.0,13.4,1505.2,0.5,-0.8,1.8,2471.622,13.29,0.029,153.4
2024-05-03T15:31:03,42.805,6.029,-0.011,-0.031,-0.006,108.0,108.0,104.0,13.4,1505.2,10.4,-0.7,1.8,2471.618,13.29,0.032,199.5
2024-05-03T15:34:03,42.805,6.029,-0.015,-0.037,0.021,107.0,104.0,104.0,13.4,1505.2,354.1,-0.8,1.8,2471.578,13.29,0.039,202.1
2024-05-03T15:37:03,42.805,6.029,-0.008,-0.015,-0.007,106.0,107.0,104.0,13.4,1505.2,1.5,-0.8,1.8,2471.635,13.29,0.017,208.1
2024-05-03T15:40:03,42.805,6.029,0.013,-0.026,-0.01,107.0,106.0,104.0,13.4,1505.2,9.2,-0.8,1.8,2471.578,13.29,0.029,153.4
2024-05-03T15:43:03,42.805,6.029,0.009,-0.037,-0.013,107.0,106.0,103.0,13.4,1505.2,7.6,-0.8,1.8,2471.659,13.29,0.038,166.3
2024-05-03T15:46:03,42.805,6.029,0.007,-0.025,0.01,106.0,108.0,104.0,13.4,1505.2,354.8,-0.8,1.8,2471.648,13.29,0.025,164.4
2024-05-03T15:49:03,42.805,6.029,-0.013,-0.035,-0.026,108.0,107.0,105.0,13.3,1505.2,359.4,-0.8,1.8,2471.613,13.29,0.037,200.4
2024-05-03T15:52:03,42.805,6.029,-0.005,-0.022,0.018,108.0,106.0,103.0,13.4,1505.2,5.6,-0.8,1.9,2471.605,13.29,0.022,192.8
2024-05-03T15:55:03,42.805,6.029,0.009,-0.023,0.0,108.0,105.0,103.0,13.3,1505.2,6.0,-0.8,1.8,2471.622,13.29,0.024,158.6
2024-05-03T15:58:03,42.805,6.029,0.011,-0.025,-0.017,107.0,107.0,104.0,13.4,1505.2,2.2,-0.8,1.8,2471.626,13.29,0.027,156.3
2024-05-03T16:04:03,42.805,6.029,0.012,-0.024,-0.017,108.0,106.0,103.0,13.4,1505.2,356.9,-0.8,1.8,2471.645,13.29,0.026,153.4
2024-05-03T16:07:03,42.805,6.029,0.016,-0.027,0.021,107.0,107.0,103.0,13.4,1505.2,5.1,-0.8,1.8,2471.645,13.29,0.031,149.3
2024-05-03T16:10:03,42.805,6.029,0.007,-0.024,0.001,107.0,108.0,103.0,13.3,1505.2,358.9,-0.7,1.8,2471.665,13.29,0.025,163.7
2024-05-03T16:13:03,42.805,6.029,-0.006,0.002,0.001,109.0,107.0,103.0,13.4,1505.2,9.3,-0.7,1.8,2471.671,13.29,0.006,288.4
2024-05-03T16:16:03,42.805,6.029,0.018,-0.024,-0.002,108.0,106.0,104.0,13.4,1505.2,0.5,-0.8,1.8,2471.635,13.29,0.03,143.1
2024-05-03T16:19:03,42.805,6.029,-0.001,-0.026,0.002,108.0,105.0,106.0,13.4,1505.2,358.9,-0.8,1.8,2471.652,13.29,0.026,182.2
2024-05-03T16:22:03,42.805,6.029,0.008,-0.009,-0.014,107.0,107.0,105.0,13.4,1505.2,9.0,-0.7,1.8,2471.638,13.29,0.012,138.4
2024-05-03T16:25:03,42.805,6.029,0.013,-0.032,0.006,107.0,107.0,104.0,13.3,1505.2,359.4,-0.7,1.8,2471.617,13.29,0.034,157.9
2024-05-03T16:28:03,42.805,6.029,-0.005,-0.001,-0.028,107.0,107.0,103.0,13.4,1505.2,11.0,-0.8,1.8,2471.625,13.29,0.005,258.7
2024-05-03T16:31:03,42.805,6.029,0.002,-0.004,0.023,107.0,106.0,103.0,13.4,1505.2,3.9,-0.8,1.8,2471.627,13.29,0.004,153.4
2024-05-03T16:34:03,42.805,6.029,0.001,-0.011,0.004,108.0,107.0,105.0,13.4,1505.2,355.4,-0.8,1.8,2471.666,13.29,0.011,174.8
2024-05-03T16:37:03,42.805,6.029,-0.001,0.006,0.009,108.0,108.0,103.0,13.4,1505.2,6.9,-0.8,1.8,2471.64,13.29,0.006,350.5
2024-05-03T16:40:03,42.805,6.029,-0.003,-0.009,-0.016,108.0,107.0,103.0,13.3,1505.2,0.5,-0.8,1.8,2471.637,13.29,0.009,198.4
2024-05-03T16:43:03,42.805,6.029,0.005,-0.02,0.009,106.0,107.0,103.0,13.4,1505.2,8.4,-0.8,1.8,2471.648,13.29,0.02,166.0
2024-05-03T16:46:03,42.805,6.029,0.012,0.0,0.0,107.0,107.0,103.0,13.4,1505.2,355.3,-0.8,1.8,2471.646,13.29,0.012,90.0
2024-05-03T16:49:03,42.805,6.029,-0.016,-0.007,-0.004,108.0,106.0,105.0,13.3,1505.2,6.3,-0.7,1.8,2471.597,13.29,0.017,246.4
2024-05-03T16:52:03,42.805,6.029,0.01,-0.003,-0.022,106.0,106.0,103.0,13.3,1505.2,11.0,-0.8,1.8,2471.638,13.29,0.01,106.7
2024-05-03T16:55:03,42.805,6.029,0.023,-0.015,-0.009,107.0,108.0,104.0,13.4,1505.2,359.4,-0.8,1.8,2471.598,13.29,0.027,123.1
2024-05-03T16:58:03,42.805,6.029,0.007,-0.027,0.026,107.0,105.0,104.0,13.4,1505.2,358.9,-0.8,1.9,2471.603,13.29,0.027,165.5
2024-05-03T17:04:03,42.805,6.029,-0.003,-0.028,0.023,108.0,106.0,104.0,13.4,1505.2,1.0,-0.8,1.8,2471.665,13.29,0.028,186.1
2024-05-03T17:07:03,42.805,6.029,-0.006,0.001,0.001,107.0,106.0,105.0,13.3,1505.2,5.7,-0.8,1.8,2471.674,13.29,0.006,279.5
2024-05-03T17:10:03,42.805,6.029,-0.002,-0.029,0.005,109.0,107.0,104.0,13.4,1505.2,3.0,-0.7,1.8,2471.677,13.29,0.029,183.9
2024-05-03T17:13:03,42.805,6.029,-0.009,-0.019,0.009,108.0,108.0,104.0,13.4,1505.2,9.6,-0.8,1.8,2471.652,13.29,0.021,205.3
2024-05-03T17:16:03,42.805,6.029,0.007,-0.02,0.002,108.0,107.0,104.0,13.4,1505.2,0.4,-0.8,1.8,2471.659,13.29,0.021,160.7
2024-05-03T17:19:03,42.805,6.029,0.007,-0.016,-0.003,107.0,108.0,104.0,13.4,1505.2,0.5,-0.7,1.8,2471.67,13.29,0.017,156.4
2024-05-03T17:22:03,42.805,6.029,0.002,-0.014,0.002,108.0,106.0,103.0,13.3,1505.2,3.3,-0.7,1.8,2471.638,13.29,0.014,171.9
2024-05-03T17:25:03,42.805,6.029,0.006,-0.016,0.01,107.0,107.0,105.0,13.3,1505.2,2.5,-0.7,1.8,2471.619,13.29,0.017,159.4
2024-05-03T17:28:03,42.805,6.029,0.012,0.009,-0.003,108.0,108.0,104.0,13.4,1505.2,3.6,-0.8,1.8,2471.639,13.29,0.015,53.1
2024-05-03T17:31:03,42.805,6.029,0.006,-0.023,0.018,109.0,108.0,103.0,13.4,1505.2,10.4,-0.8,1.9,2471.614,13.29,0.023,165.4
2024-05-03T17:34:03,42.805,6.029,0.002,-0.008,0.001,109.0,107.0,105.0,13.4,1505.2,355.6,-0.8,1.8,2471.598,13.29,0.008,166.0
2024-05-03T17:37:03,42.805,6.029,-0.002,-0.011,0.013,108.0,107.0,105.0,13.3,1505.2,1.0,-0.8,1.8,2471.595,13.29,0.011,190.3
2024-05-03T17:40:03,42.805,6.029,0.006,0.007,0.011,108.0,109.0,105.0,13.3,1505.2,4.4,-0.7,1.8,2471.612,13.29,0.009,40.6
2024-05-03T17:43:03,42.805,6.029,0.006,-0.013,0.02,108.0,107.0,105.0,13.4,1505.2,354.7,-0.8,1.8,2471.599,13.29,0.014,155.2
2024-05-03T17:46:03,42.805,6.029,0.022,0.0,-0.014,108.0,107.0,105.0,13.4,1505.2,0.0,-0.8,1.8,2471.609,13.29,0.022,90.0
2024-05-03T17:49:03,42.805,6.029,0.006,-0.02,0.02,106.0,108.0,103.0,13.4,1505.2,355.3,-0.8,1.8,2471.644,13.29,0.02,163.3
2024-05-03T17:52:03,42.805,6.029,0.004,-0.012,-0.003,109.0,109.0,106.0,13.4,1505.2,1.0,-0.7,1.8,2471.596,13.29,0.012,161.6
2024-05-03T17:55:03,42.805,6.029,-0.004,0.005,-0.005,107.0,106.0,104.0,13.4,1505.2,5.9,-0.8,1.8,2471.598,13.29,0.006,321.3
2024-05-03T17:58:03,42.805,6.029,0.011,-0.018,-0.025,107.0,108.0,103.0,13.4,1505.2,359.4,-0.8,1.8,2471.6,13.29,0.021,148.6
2024-05-03T18:04:03,42.805,6.029,0.025,0.0,0.019,109.0,107.0,104.0,13.4,1505.2,357.5,-0.7,1.8,2471.661,13.29,0.025,90.0
2024-05-03T18:07:03,42.805,6.029,0.018,-0.036,0.035,108.0,107.0,104.0,13.3,1505.2,1.6,-0.8,1.8,2471.631,13.29,0.04,153.4
2024-05-03T18:10:03,42.805,6.029,0.01,-0.001,0.015,109.0,107.0,105.0,13.4,1505.2,6.1,-0.7,1.8,2471.64,13.29,0.01,95.7
2024-05-03T18:13:03,42.805,6.029,0.012,-0.001,0.006,108.0,107.0,105.0,13.3,1505.2,354.1,-0.8,1.8,2471.642,13.29,0.012,94.8
2024-05-03T18:16:03,42.805,6.029,0.013,-0.004,-0.004,108.0,108.0,105.0,13.3,1505.2,5.3,-0.8,1.8,2471.63,13.29,0.013,107.1
2024-05-03T18:19:03,42.805,6.029,0.025,-0.008,0.002,108.0,108.0,105.0,13.3,1505.2,10.4,-0.7,1.8,2471.605,13.29,0.026,107.7
2024-05-03T18:22:03,42.805,6.029,0.009,-0.011,0.009,110.0,108.0,105.0,13.4,1505.2,11.0,-0.7,1.8,2471.621,13.29,0.014,140.7
2024-05-03T18:25:03,42.805,6.029,0.001,0.004,-0.013,107.0,106.0,105.0,13.4,1505.2,353.9,-0.8,1.8,2471.615,13.29,0.004,14.0
2024-05-03T18:28:03,42.805,6.029,0.003,-0.038,0.015,109.0,108.0,104.0,13.4,1505.2,357.9,-0.8,1.8,2471.594,13.29,0.038,175.5
2024-05-03T18:31:03,42.805,6.029,0.001,-0.008,-0.009,108.0,108.0,105.0,13.4,1505.2,1.1,-0.8,1.8,2471.593,13.29,0.008,172.9
2024-05-03T18:34:03,42.805,6.029,0.011,-0.013,0.032,109.0,108.0,105.0,13.4,1505.2,8.4,-0.7,1.8,2471.585,13.29,0.017,139.8
2024-05-03T18:37:03,42.805,6.029,-0.005,-0.01,-0.002,107.0,108.0,106.0,13.4,1505.2,355.9,-0.8,1.8,2471.599,13.29,0.011,206.6
2024-05-03T18:40:03,42.805,6.029,0.023,-0.018,-0.008,109.0,108.0,105.0,13.4,1505.2,353.5,-0.7,1.8,2471.552,13.29,0.029,128.0
2024-05-03T18:43:03,42.805,6.029,0.01,-0.015,-0.011,108.0,107.0,104.0,13.4,1505.2,358.3,-0.8,1.8,2471.544,13.29,0.018,146.3
2024-05-03T18:46:03,42.805,6.029,0.002,-0.014,-0.01,107.0,106.0,105.0,13.4,1505.2,2.9,-0.7,1.8,2471.577,13.29,0.014,171.9
2024-05-03T18:49:03,42.805,6.029,0.01,-0.012,0.016,109.0,106.0,105.0,13.4,1505.2,5.7,-0.7,1.8,2471.599,13.29,0.015,140.2
2024-05-03T18:52:03,42.805,6.029,0.017,-0.021,0.026,107.0,107.0,103.0,13.4,1505.2,4.4,-0.8,1.8,2471.591,13.29,0.027,141.0
2024-05-03T18:55:03,42.805,6.029,0.001,-0.01,0.023,108.0,108.0,104.0,13.4,1505.2,8.7,-0.7,1.8,2471.579,13.29,0.01,174.3
2024-05-03T18:58:03,42.805,6.029,-0.005,-0.011,0.005,109.0,105.0,105.0,13.4,1505.2,354.0,-0.8,1.8,2471.571,13.29,0.012,204.4
2024-05-03T19:04:03,42.805,6.029,0.019,-0.008,0.004,108.0,108.0,106.0,13.4,1505.2,359.4,-0.7,1.8,2471.581,13.29,0.02,112.8
2024-05-03T19:07:03,42.805,6.029,0.007,-0.009,0.013,108.0,107.0,105.0,13.4,1505.2,9.9,-0.8,1.8,2471.583,13.29,0.011,142.1
2024-05-03T19:10:03,42.805,6.029,0.036,-0.022,-0.022,109.0,108.0,105.0,13.4,1505.2,354.9,-0.8,1.8,2471.642,13.29,0.042,121.4
2024-05-03T19:13:03,42.805,6.029,0.012,-0.014,0.005,108.0,108.0,104.0,13.4,1505.2,2.0,-0.8,1.8,2471.63,13.29,0.018,139.4
2024-05-03T19:16:03,42.805,6.029,0.011,-0.015,0.009,108.0,108.0,106.0,13.4,1505.2,9.8,-0.8,1.8,2471.584,13.29,0.018,143.7
2024-05-03T19:19:03,42.805,6.029,0.014,-0.024,0.013,109.0,109.0,104.0,13.4,1505.2,353.9,-0.7,1.8,2471.544,13.29,0.027,149.7
2024-05-03T19:22:02,42.805,6.029,0.025,0.005,-0.02,108.0,107.0,105.0,13.4,1505.2,6.5,-0.8,1.8,2471.555,13.29,0.025,78.7
2024-05-03T19:25:03,42.805,6.029,0.028,-0.002,0.032,109.0,109.0,105.0,13.3,1505.2,356.2,-0.8,1.8,2471.549,13.29,0.028,94.1
2024-05-03T19:28:03,42.805,6.029,0.015,-0.008,0.032,109.0,109.0,104.0,13.4,1505.2,358.9,-0.8,1.8,2471.571,13.29,0.017,118.1
2024-05-03T19:31:02,42.805,6.029,0.012,-0.001,-0.014,109.0,108.0,106.0,13.3,1505.2,7.1,-0.7,1.8,2471.583,13.29,0.012,94.8
2024-05-03T19:34:02,42.805,6.029,0.034,-0.028,-0.002,108.0,108.0,104.0,13.4,1505.2,3.9,-0.7,1.8,2471.54,13.29,0.044,129.5
2024-05-03T19:37:02,42.805,6.029,0.012,0.0,-0.01,108.0,109.0,105.0,13.3,1505.2,1.1,-0.7,1.8,2471.57,13.29,0.012,90.0
2024-05-03T19:40:02,42.805,6.029,0.02,-0.003,0.037,110.0,107.0,105.0,13.4,1505.2,5.9,-0.7,1.8,2471.54,13.29,0.02,98.5
2024-05-03T19:43:03,42.805,6.029,0.012,-0.005,0.027,109.0,108.0,105.0,13.4,1505.2,358.3,-0.7,1.8,2471.574,13.29,0.013,112.6
2024-05-03T19:46:03,42.805,6.029,0.006,-0.02,-0.003,110.0,109.0,105.0,13.4,1505.2,8.5,-0.8,1.8,2471.503,13.29,0.02,163.3
2024-05-03T19:49:02,42.805,6.029,0.004,-0.015,0.0,110.0,108.0,105.0,13.4,1505.2,3.3,-0.8,1.8,2471.555,13.29,0.015,165.1
2024-05-03T19:52:02,42.805,6.029,0.026,-0.025,-0.027,109.0,108.0,105.0,13.3,1505.2,6.2,-0.7,1.8,2471.559,13.29,0.036,133.9
2024-05-03T19:55:03,42.805,6.029,0.012,-0.016,-0.021,108.0,109.0,104.0,13.4,1505.2,9.7,-0.7,1.8,2471.572,13.29,0.02,143.1
2024-05-03T19:58:02,42.805,6.029,0.007,0.0,0.011,109.0,107.0,104.0,13.4,1505.2,6.5,-0.8,1.8,2471.556,13.29,0.007,90.0
2024-05-03T20:04:02,42.805,6.029,0.018,-0.023,0.008,108.0,109.0,104.0,13.4,1505.2,10.3,-0.8,1.8,2471.546,13.29,0.029,142.0
2024-05-03T20:07:02,42.805,6.029,0.025,-0.012,0.024,109.0,108.0,104.0,13.4,1505.2,355.2,-0.8,1.8,2471.583,13.29,0.027,115.6
2024-05-03T20:10:02,42.805,6.029,0.013,0.012,0.003,109.0,108.0,105.0,13.3,1505.2,5.1,-0.8,1.8,2471.57,13.29,0.017,47.3
2024-05-03T20:13:03,42.805,6.029,0.019,-0.02,-0.012,108.0,108.0,105.0,13.4,1505.2,10.1,-0.7,1.8,2471.528,13.29,0.027,136.5
2024-05-03T20:16:02,42.805,6.029,0.009,-0.015,0.0,109.0,109.0,105.0,13.4,1505.2,354.2,-0.8,1.8,2471.519,13.29,0.017,149.0
2024-05-03T20:19:02,42.805,6.029,0.022,-0.016,0.02,109.0,108.0,105.0,13.3,1505.2,357.7,-0.8,1.8,2471.528,13.29,0.027,126.0
2024-05-03T20:22:02,42.805,6.029,0.024,0.01,-0.001,108.0,107.0,105.0,13.3,1505.2,357.3,-0.7,1.8,2471.553,13.29,0.026,67.4
2024-05-03T20:25:02,42.805,6.029,0.005,-0.018,0.015,109.0,109.0,105.0,13.4,1505.2,355.8,-0.8,1.8,2471.528,13.29,0.018,164.5
2024-05-03T20:28:02,42.805,6.029,0.0,-0.02,0.007,108.0,108.0,104.0,13.4,1505.2,8.0,-0.8,1.8,2471.537,13.29,0.02,180.0
2024-05-03T20:31:02,42.805,6.029,0.013,-0.007,0.001,108.0,108.0,104.0,13.3,1505.2,3.3,-0.8,1.8,2471.54,13.29,0.014,118.3
2024-05-03T20:34:03,42.805,6.029,0.017,-0.005,-0.002,108.0,108.0,105.0,13.4,1505.2,5.0,-0.7,1.8,2471.55,13.29,0.017,106.4
2024-05-03T20:37:02,42.805,6.029,0.0,-0.031,-0.01,109.0,108.0,104.0,13.3,1505.2,5.0,-0.7,1.8,2471.513,13.29,0.03,180.0
2024-05-03T20:40:02,42.805,6.029,0.028,-0.015,0.037,109.0,107.0,104.0,13.4,1505.2,354.6,-0.8,1.8,2471.518,13.29,0.031,118.2
2024-05-03T20:43:02,42.805,6.029,0.006,-0.02,0.002,110.0,109.0,105.0,13.4,1505.2,10.4,-0.8,1.8,2471.49,13.29,0.02,163.3
2024-05-03T20:46:02,42.805,6.029,0.018,-0.014,0.004,107.0,108.0,105.0,13.3,1505.2,358.3,-0.8,1.8,2471.535,13.29,0.022,127.9
2024-05-03T20:49:02,42.805,6.029,0.034,-0.031,0.012,108.0,106.0,104.0,13.4,1505.2,0.0,-0.8,1.8,2471.509,13.29,0.046,132.4
2024-05-03T20:52:02,42.805,6.029,0.031,-0.035,0.009,109.0,108.0,104.0,13.4,1505.2,7.0,-0.7,1.8,2471.52,13.29,0.046,138.5
2024-05-03T20:55:03,42.805,6.029,0.025,-0.003,0.002,108.0,109.0,105.0,13.4,1505.2,0.5,-0.8,1.8,2471.502,13.29,0.025,96.8
2024-05-03T20:58:03,42.805,6.029,0.016,-0.003,0.013,107.0,110.0,105.0,13.4,1505.2,8.9,-0.8,1.8,2471.531,13.29,0.016,100.6
2024-05-03T21:04:02,42.805,6.029,0.014,-0.007,0.015,109.0,109.0,105.0,13.4,1505.2,2.5,-0.7,1.8,2471.557,13.29,0.015,116.6
2024-05-03T21:07:02,42.805,6.029,0.008,-0.015,0.018,109.0,109.0,105.0,13.4,1505.2,10.7,-0.7,1.8,2471.56,13.29,0.017,151.9
2024-05-03T21:10:03,42.805,6.029,0.034,0.001,-0.011,109.0,107.0,106.0,13.4,1505.2,5.8,-0.8,1.8,2471.522,13.29,0.034,88.3
2024-05-03T21:13:03,42.805,6.029,0.034,-0.013,0.001,109.0,109.0,105.0,13.4,1505.2,3.3,-0.8,1.8,2471.55,13.29,0.036,110.9
2024-05-03T21:16:02,42.805,6.029,0.02,-0.006,-0.007,108.0,108.0,105.0,13.4,1505.2,3.8,-0.8,1.8,2471.564,13.29,0.02,106.7
2024-05-03T21:19:03,42.805,6.029,0.012,0.0,-0.002,109.0,108.0,105.0,13.4,1505.2,1.6,-0.8,1.8,2471.595,13.29,0.012,90.0
2024-05-03T21:22:02,42.805,6.029,0.013,-0.02,-0.015,108.0,109.0,105.0,13.3,1505.2,356.1,-0.8,1.8,2471.543,13.29,0.023,147.0
2024-05-03T21:25:03,42.805,6.029,0.018,-0.004,-0.002,109.0,107.0,105.0,13.4,1505.2,358.9,-0.7,1.8,2471.518,13.29,0.018,102.5
2024-05-03T21:28:02,42.805,6.029,0.023,0.004,0.023,109.0,107.0,104.0,13.3,1505.2,358.4,-0.7,1.8,2471.5,13.29,0.023,80.1
2024-05-03T21:31:03,42.805,6.029,0.0,-0.013,0.014,108.0,109.0,104.0,13.4,1505.2,10.3,-0.8,1.8,2471.536,13.29,0.013,180.0
2024-05-03T21:34:03,42.805,6.029,0.03,-0.004,0.021,108.0,107.0,105.0,13.4,1505.2,354.8,-0.8,1.8,2471.546,13.29,0.03,97.6
2024-05-03T21:37:02,42.805,6.029,0.017,-0.019,0.005,108.0,107.0,105.0,13.3,1505.2,3.1,-0.8,1.8,2471.521,13.29,0.025,138.2
2024-05-03T21:40:02,42.805,6.029,0.03,-0.011,0.003,108.0,108.0,104.0,13.4,1505.2,4.8,-0.7,1.8,2471.535,13.29,0.031,110.1
2024-05-03T21:43:03,42.805,6.029,0.018,-0.018,0.016,109.0,109.0,104.0,13.4,1505.2,8.6,-0.8,1.8,2471.537,13.29,0.025,135.0
2024-05-03T21:46:03,42.805,6.029,0.023,-0.025,0.01,108.0,108.0,104.0,13.4,1505.2,357.9,-0.8,1.8,2471.499,13.29,0.033,137.4
2024-05-03T21:49:03,42.805,6.029,0.016,-0.02,0.01,107.0,109.0,105.0,13.4,1505.2,8.5,-0.7,1.8,2471.52,13.29,0.025,141.3
2024-05-03T21:52:02,42.805,6.029,0.015,0.007,0.049,109.0,109.0,105.0,13.4,1505.2,359.4,-0.8,1.8,2471.512,13.29,0.016,65.0
2024-05-03T21:55:03,42.805,6.029,0.026,-0.015,0.023,107.0,108.0,104.0,13.3,1505.2,359.0,-0.8,1.8,2471.539,13.29,0.03,120.0
2024-05-03T21:58:03,42.805,6.029,0.039,-0.004,0.001,108.0,108.0,104.0,13.4,1505.2,6.5,-0.8,1.8,2471.543,13.29,0.039,95.9
2024-05-03T22:04:02,42.805,6.029,0.016,-0.007,0.021,109.0,108.0,105.0,13.4,1505.2,358.9,-0.7,1.8,2471.562,13.29,0.017,113.6
2024-05-03T22:07:02,42.805,6.029,0.021,-0.025,0.032,108.0,108.0,104.0,13.3,1505.2,9.9,-0.8,1.8,2471.527,13.29,0.032,140.0
2024-05-03T22:10:03,42.805,6.029,0.021,-0.009,0.012,108.0,107.0,105.0,13.3,1505.2,2.1,-0.7,1.8,2471.56,13.29,0.022,113.2
2024-05-03T22:13:03,42.805,6.029,0.017,-0.002,0.013,109.0,108.0,104.0,13.4,1505.2,10.3,-0.7,1.8,2471.544,13.29,0.017,96.7
2024-05-03T22:16:03,42.805,6.029,0.034,-0.009,0.012,109.0,108.0,105.0,13.4,1505.2,353.6,-0.8,1.8,2471.516,13.29,0.035,104.8
2024-05-03T22:19:03,42.805,6.029,0.029,-0.018,-0.003,109.0,109.0,107.0,13.4,1505.2,4.9,-0.8,1.8,2471.537,13.29,0.034,121.8
2024-05-03T22:22:02,42.805,6.029,0.018,0.005,0.025,107.0,108.0,105.0,13.3,1505.2,6.4,-0.8,1.8,2471.547,13.29,0.018,74.5
2024-05-03T22:25:03,42.805,6.029,0.035,-0.019,0.014,107.0,107.0,105.0,13.3,1505.2,6.8,-0.7,1.8,2471.526,13.29,0.039,118.5
2024-05-03T22:28:03,42.805,6.029,0.035,-0.01,0.02,107.0,107.0,104.0,13.3,1505.2,5.5,-0.8,1.8,2471.503,13.29,0.036,105.9
2024-05-03T22:31:03,42.805,6.029,0.033,-0.025,0.013,108.0,108.0,104.0,13.4,1505.2,1.1,-0.8,1.8,2471.534,13.29,0.041,127.1
2024-05-03T22:34:03,42.805,6.029,0.029,-0.006,0.005,109.0,107.0,105.0,13.3,1505.2,358.9,-0.8,1.8,2471.504,13.29,0.029,101.7
2024-05-03T22:37:02,42.805,6.029,0.025,-0.012,-0.001,106.0,107.0,104.0,13.3,1505.2,9.2,-0.7,1.8,2471.492,13.29,0.027,115.6
2024-05-03T22:40:03,42.805,6.029,0.025,-0.022,-0.029,107.0,107.0,105.0,13.4,1505.2,356.4,-0.7,1.8,2471.488,13.29,0.033,131.3
2024-05-03T22:43:03,42.805,6.029,0.03,-0.002,0.023,109.0,109.0,104.0,13.3,1505.2,1.5,-0.7,1.8,2471.527,13.29,0.03,93.8
2024-05-03T22:46:03,42.805,6.029,0.045,-0.028,0.005,109.0,110.0,105.0,13.3,1505.2,9.7,-0.7,1.8,2471.512,13.29,0.053,121.9
2024-05-03T22:49:03,42.805,6.029,0.026,0.004,0.034,109.0,108.0,105.0,13.3,1505.2,5.5,-0.7,1.8,2471.506,13.29,0.026,81.3
2024-05-03T22:52:02,42.805,6.029,0.027,0.006,0.047,108.0,108.0,105.0,13.3,1505.2,355.8,-0.7,1.8,2471.511,13.29,0.027,77.5
2024-05-03T22:55:03,42.805,6.029,0.012,0.005,0.007,109.0,108.0,104.0,13.4,1505.2,2.1,-0.7,1.8,2471.544,13.29,0.013,67.4
2024-05-03T22:58:03,42.805,6.029,0.024,-0.009,0.01,108.0,109.0,104.0,13.3,1505.2,4.1,-0.7,1.8,2471.574,13.29,0.025,110.6
2024-05-03T23:04:02,42.805,6.029,0.023,-0.025,0.028,108.0,108.0,105.0,13.4,1505.2,358.3,-0.8,1.8,2471.565,13.28,0.033,137.4
2024-05-03T23:07:02,42.805,6.029,-0.001,-0.005,0.02,109.0,107.0,104.0,13.3,1505.2,3.0,-0.7,1.8,2471.554,13.29,0.005,191.3
2024-05-03T23:10:03,42.805,6.029,0.019,0.0,0.005,108.0,109.0,105.0,13.4,1505.2,3.8,-0.8,1.8,2471.563,13.29,0.019,90.0
2024-05-03T23:13:03,42.805,6.029,0.035,-0.035,0.017,108.0,107.0,105.0,13.4,1505.2,3.4,-0.7,1.8,2471.548,13.29,0.049,135.0
2024-05-03T23:16:03,42.805,6.029,0.02,-0.018,-0.014,109.0,108.0,104.0,13.4,1505.2,355.1,-0.7,1.8,2471.575,13.29,0.026,132.0
2024-05-03T23:19:03,42.805,6.029,0.015,-0.033,0.032,108.0,109.0,105.0,13.4,1505.2,4.2,-0.7,1.8,2471.547,13.29,0.036,155.6
2024-05-03T23:22:02,42.805,6.029,0.023,-0.013,0.009,109.0,108.0,104.0,13.4,1505.2,9.8,-0.8,1.8,2471.511,13.29,0.026,119.5
2024-05-03T23:25:03,42.805,6.029,0.027,-0.024,0.005,108.0,108.0,105.0,13.3,1505.2,355.8,-0.8,1.8,2471.539,13.29,0.036,131.6
2024-05-03T23:28:03,42.805,6.029,0.018,-0.024,0.016,108.0,110.0,105.0,13.3,1505.2,10.4,-0.8,1.8,2471.564,13.29,0.03,143.1
2024-05-03T23:31:03,42.805,6.029,0.033,-0.007,0.016,108.0,109.0,105.0,13.4,1505.2,358.9,-0.7,1.8,2471.538,13.29,0.033,102.0
2024-05-03T23:34:03,42.805,6.029,0.019,-0.007,0.008,109.0,108.0,104.0,13.4,1505.2,1.0,-0.7,1.8,2471.526,13.29,0.02,110.2
2024-05-03T23:37:02,42.805,6.029,0.009,-0.022,-0.007,109.0,106.0,105.0,13.3,1505.2,8.2,-0.7,1.8,2471.546,13.29,0.023,157.8
2024-05-03T23:40:03,42.805,6.029,0.034,-0.006,0.012,108.0,108.0,105.0,13.4,1505.2,356.3,-0.7,1.8,2471.566,13.29,0.034,100.0
2024-05-03T23:43:03,42.805,6.029,0.008,-0.005,0.01,107.0,109.0,105.0,13.4,1505.2,0.0,-0.7,1.8,2471.555,13.29,0.009,122.0
2024-05-03T23:46:03,42.805,6.029,0.021,-0.022,0.019,107.0,108.0,103.0,13.4,1505.2,1.1,-0.8,1.8,2471.545,13.29,0.03,136.3
2024-05-03T23:49:03,42.805,6.029,0.019,-0.028,0.021,108.0,109.0,104.0,13.4,1505.2,356.9,-0.8,1.8,2471.533,13.29,0.033,145.8
2024-05-03T23:52:02,42.805,6.029,0.036,-0.026,-0.015,109.0,109.0,104.0,13.3,1505.2,5.1,-0.7,1.8,2471.537,13.29,0.044,125.8
2024-05-03T23:55:03,42.805,6.029,0.024,-0.026,-0.014,108.0,109.0,104.0,13.3,1505.2,8.4,-0.7,1.8,2471.556,13.29,0.035,137.3
2024-05-03T23:58:03,42.805,6.029,0.016,0.0,0.016,108.0,107.0,105.0,13.4,1505.2,0.0,-0.8,1.8,2471.547,13.29,0.016,90.0
